This is the latest recevied weather packets stored in our database for station/object NE8U. If no packets are shown the sender has not sent any weather packets the latest 10 day(s).
| Time | Temp. | Humidity | Pressure | Rain* | Wind** | Luminosity | Snow |
|---|---|---|---|---|---|---|---|
| 1777570362 | 27.22° C | 18% | 1012.4 hPa | 0 mm | - | 835 W/m² | - |
| 1777570057 | 26.67° C | 19% | 1012.6 hPa | 0 mm | - | 835 W/m² | - |
| 1777569753 | 26.67° C | 18% | 1012.8 hPa | 0 mm | - | 812 W/m² | - |
| 1777569449 | 26.67° C | 19% | 1012.6 hPa | 0 mm | - | 822 W/m² | - |
| 1777569146 | 26.11° C | 19% | 1012.7 hPa | 0 mm | - | 734 W/m² | - |
| 1777568842 | 26.11° C | 20% | 1012.7 hPa | 0 mm | - | 813 W/m² | - |
| 1777568540 | 25.56° C | 21% | 1012.7 hPa | 0 mm | - | 724 W/m² | - |
| 1777568236 | 26.11° C | 20% | 1012.7 hPa | 0 mm | - | 786 W/m² | - |
| 1777567934 | 25.56° C | 20% | 1012.8 hPa | 0 mm | - | 906 W/m² | - |
| 1777567629 | 25.56° C | 20% | 1012.7 hPa | 0 mm | - | 665 W/m² | - |
| 1777567327 | 25° C | 21% | 1012.9 hPa | 0 mm | - | 727 W/m² | - |
| 1777567025 | 25° C | 20% | 1012.7 hPa | 0 mm | - | 898 W/m² | - |
| 1777566723 | 24.44° C | 21% | 1012.9 hPa | 0 mm | - | 618 W/m² | - |
| 1777566421 | 25° C | 20% | 1013.1 hPa | 0 mm | - | 666 W/m² | - |
| 1777566117 | 25° C | 21% | 1013.1 hPa | 0 mm | - | 355 W/m² | - |
| 1777565812 | 25.56° C | 20% | 1012.9 hPa | 0 mm | - | 734 W/m² | - |
| 1777565509 | 24.44° C | 21% | 1012.9 hPa | 0 mm | - | 626 W/m² | - |
| 1777565205 | 23.33° C | 23% | 1013.1 hPa | 0 mm | - | 443 W/m² | - |
| 1777564902 | 22.78° C | 23% | 1013 hPa | 0 mm | - | 308 W/m² | - |
| 1777564597 | 23.33° C | 22% | 1013 hPa | 0 mm | - | 224 W/m² | - |
| 1777564293 | 22.78° C | 23% | 1013.1 hPa | 0 mm | - | 269 W/m² | - |
| 1777563989 | 22.78° C | 24% | 1013 hPa | 0 mm | - | 190 W/m² | - |
| 1777563686 | 23.33° C | 23% | 1013.1 hPa | 0 mm | - | 237 W/m² | - |
| 1777563381 | 23.33° C | 23% | 1013.1 hPa | 0 mm | - | 491 W/m² | - |
| 1777563077 | 21.67° C | 24% | 1013 hPa | 0 mm | - | 570 W/m² | - |
* Rain latest hour (hover to see other rain measurements)
** Current wind speed in m/s (hover to see current wind gust speed)